timestamp,wind_dir_avg,wind_spd_avg,wind_spd_max_dir,wind_spd_gust,battery_voltage,lat,long
2023-02-15 00:04:00+00:00,23.0,18.06,27.0,23.43,12.33,47.59359,-54.27349
2023-02-15 00:14:00+00:00,22.0,18.62,15.0,21.43,12.33,47.59359,-54.27349
2023-02-15 00:24:00+00:00,19.0,20.03,24.0,24.0,12.33,47.59359,-54.27349
2023-02-15 00:34:00+00:00,28.0,19.77,28.0,24.47,12.33,47.59359,-54.27349
2023-02-15 00:44:00+00:00,26.0,18.39,27.0,21.52,12.33,47.59359,-54.27349
2023-02-15 00:54:00+00:00,22.0,18.98,21.0,22.29,12.33,47.59359,-54.27349
2023-02-15 01:04:00+00:00,22.0,19.37,18.0,22.31,12.33,47.59359,-54.27349
2023-02-15 01:14:00+00:00,24.0,18.93,31.0,22.14,12.33,47.59359,-54.27349
2023-02-15 01:24:00+00:00,18.0,15.97,26.0,21.66,12.33,47.59359,-54.27349
2023-02-15 01:34:00+00:00,16.0,19.03,16.0,21.77,12.33,47.59359,-54.27349
2023-02-15 01:44:00+00:00,20.0,17.68,12.0,21.43,12.33,47.59359,-54.27349
2023-02-15 01:54:00+00:00,17.0,16.03,16.0,18.26,12.33,47.59359,-54.27349
2023-02-15 02:04:00+00:00,12.0,16.04,10.0,19.71,12.33,47.59359,-54.27349
2023-02-15 02:14:00+00:00,12.0,14.83,12.0,18.6,12.25,47.59359,-54.27349
2023-02-15 02:24:00+00:00,11.0,14.43,12.0,17.27,12.25,47.59359,-54.27349
2023-02-15 02:34:00+00:00,6.0,16.8,5.0,19.74,12.25,47.59359,-54.27349
2023-02-15 02:44:00+00:00,8.0,16.75,7.0,20.58,12.25,47.59359,-54.27349
2023-02-15 02:54:00+00:00,4.0,17.82,5.0,19.93,12.25,47.59359,-54.27349
2023-02-15 03:04:00+00:00,8.0,16.02,6.0,18.99,12.25,47.59359,-54.27349
2023-02-15 03:14:01+00:00,6.0,15.7,4.0,19.76,12.25,47.59359,-54.27349
2023-02-15 03:24:01+00:00,5.0,15.78,7.0,20.56,12.25,47.59359,-54.27349
2023-02-15 03:34:01+00:00,4.0,16.91,9.0,19.39,12.25,47.59359,-54.27349
2023-02-15 03:44:01+00:00,5.0,15.46,0.0,17.95,12.25,47.59359,-54.27349
2023-02-15 03:54:01+00:00,3.0,17.85,9.0,21.12,12.25,47.59359,-54.27349
2023-02-15 04:04:01+00:00,4.0,17.48,5.0,21.1,12.25,47.59359,-54.27349
2023-02-15 04:14:00+00:00,1.0,17.01,2.0,20.22,12.17,47.59359,-54.27349
2023-02-15 04:24:00+00:00,7.0,17.81,10.0,21.94,12.17,47.59359,-54.27349
2023-02-15 04:34:00+00:00,3.0,19.8,3.0,22.02,12.17,47.59359,-54.27349
2023-02-15 04:44:00+00:00,5.0,18.03,5.0,21.49,12.17,47.59359,-54.27349
2023-02-15 04:54:00+00:00,4.0,17.76,350.0,20.56,12.17,47.59359,-54.27349
2023-02-15 05:04:00+00:00,7.0,17.9,9.0,21.95,12.17,47.59359,-54.27349
2023-02-15 05:14:00+00:00,5.0,17.97,7.0,21.17,12.17,47.59359,-54.27349
2023-02-15 05:24:00+00:00,4.0,16.58,10.0,20.34,12.17,47.59359,-54.27349
2023-02-15 05:34:00+00:00,6.0,19.25,10.0,21.78,12.17,47.59359,-54.27349
2023-02-15 05:44:00+00:00,2.0,18.82,10.0,24.85,12.17,47.59359,-54.27349
2023-02-15 05:54:00+00:00,3.0,18.37,9.0,20.99,12.17,47.59359,-54.27349
2023-02-15 06:04:00+00:00,5.0,20.11,10.0,23.22,12.17,47.59359,-54.27349
2023-02-15 06:14:00+00:00,1.0,19.96,6.0,23.75,12.17,47.59359,-54.27349
2023-02-15 06:24:00+00:00,359.0,18.27,1.0,21.79,12.17,47.59359,-54.27349
2023-02-15 06:34:00+00:00,1.0,19.52,4.0,24.74,12.17,47.59359,-54.27349
2023-02-15 06:44:00+00:00,358.0,19.78,352.0,22.19,12.17,47.59359,-54.27349
2023-02-15 06:54:00+00:00,357.0,19.67,346.0,23.54,12.17,47.59359,-54.27349
2023-02-15 07:04:00+00:00,0.0,18.93,6.0,23.45,12.17,47.59359,-54.27349
2023-02-15 07:14:00+00:00,2.0,21.37,11.0,25.43,12.17,47.59359,-54.27349
2023-02-15 07:24:00+00:00,4.0,19.66,7.0,23.36,12.17,47.59359,-54.27349
2023-02-15 07:34:00+00:00,0.0,19.46,357.0,23.13,12.17,47.59359,-54.27349
2023-02-15 07:44:00+00:00,1.0,17.79,6.0,22.09,12.17,47.59359,-54.27349
2023-02-15 07:54:00+00:00,2.0,19.62,8.0,22.82,12.17,47.59359,-54.27349
2023-02-15 08:04:00+00:00,359.0,19.45,3.0,22.63,12.17,47.59359,-54.27349
2023-02-15 08:14:00+00:00,5.0,17.32,5.0,21.17,12.17,47.59359,-54.27349
2023-02-15 08:24:00+00:00,1.0,17.36,4.0,21.22,12.17,47.59359,-54.27349
2023-02-15 08:34:00+00:00,1.0,19.12,347.0,23.23,12.17,47.59359,-54.27349
2023-02-15 08:44:00+00:00,3.0,19.36,347.0,22.07,12.17,47.59359,-54.27349
2023-02-15 08:54:00+00:00,0.0,19.32,350.0,22.34,12.17,47.59359,-54.27349
2023-02-15 09:04:00+00:00,4.0,18.23,1.0,21.6,12.17,47.59359,-54.27349
2023-02-15 09:14:01+00:00,5.0,18.51,8.0,22.32,12.17,47.59359,-54.27349
2023-02-15 09:24:01+00:00,8.0,19.31,6.0,22.38,12.17,47.59359,-54.27349
2023-02-15 09:34:01+00:00,4.0,18.07,346.0,21.28,12.17,47.59359,-54.27349
2023-02-15 09:44:01+00:00,8.0,17.41,8.0,21.3,12.17,47.59359,-54.27349
2023-02-15 09:54:01+00:00,7.0,18.87,1.0,21.98,12.17,47.59359,-54.27349
2023-02-15 10:04:01+00:00,8.0,17.39,5.0,20.39,12.17,47.59359,-54.27349
2023-02-15 10:14:00+00:00,7.0,18.97,4.0,23.33,12.17,47.59359,-54.27349
2023-02-15 10:24:00+00:00,4.0,17.46,0.0,20.95,12.17,47.59359,-54.27349
2023-02-15 10:34:00+00:00,3.0,18.12,8.0,21.26,12.17,47.59359,-54.27349
2023-02-15 10:44:00+00:00,6.0,16.63,8.0,20.64,12.17,47.59359,-54.27349
2023-02-15 10:54:00+00:00,9.0,19.95,11.0,22.6,12.17,47.59359,-54.27349
2023-02-15 11:04:00+00:00,7.0,15.57,6.0,19.23,12.17,47.59359,-54.27349
2023-02-15 11:14:00+00:00,9.0,20.65,12.0,23.44,12.17,47.59359,-54.27349
2023-02-15 11:24:00+00:00,10.0,17.63,8.0,20.25,12.17,47.59359,-54.27349
2023-02-15 11:34:00+00:00,8.0,17.4,7.0,21.98,12.17,47.59359,-54.27349
2023-02-15 11:44:00+00:00,12.0,15.93,9.0,18.96,12.17,47.59359,-54.27349
2023-02-15 11:54:00+00:00,10.0,16.71,8.0,20.58,12.17,47.59359,-54.27349
2023-02-15 12:04:00+00:00,9.0,17.01,7.0,20.01,12.17,47.59359,-54.27349
2023-02-15 12:14:00+00:00,9.0,16.06,8.0,18.72,14.4,47.59359,-54.27349
2023-02-15 12:24:00+00:00,8.0,16.82,10.0,20.82,14.4,47.59359,-54.27349
2023-02-15 12:34:00+00:00,6.0,16.0,3.0,19.13,14.4,47.59359,-54.27349
2023-02-15 12:44:00+00:00,10.0,14.97,9.0,17.39,14.4,47.59359,-54.27349
2023-02-15 12:54:00+00:00,4.0,16.3,10.0,19.98,14.4,47.59359,-54.27349
2023-02-15 13:04:00+00:00,7.0,14.8,1.0,16.81,14.4,47.59359,-54.27349
2023-02-15 13:14:00+00:00,3.0,18.09,14.0,21.46,13.76,47.59359,-54.27349
2023-02-15 13:24:00+00:00,5.0,15.86,12.0,20.35,13.76,47.59359,-54.27349
2023-02-15 13:34:00+00:00,9.0,17.51,12.0,21.64,13.76,47.59359,-54.27349
2023-02-15 13:44:00+00:00,6.0,16.71,12.0,19.3,13.76,47.59359,-54.27349
2023-02-15 13:54:00+00:00,9.0,15.68,7.0,18.36,13.76,47.59359,-54.27349
2023-02-15 14:04:00+00:00,7.0,17.72,12.0,19.87,13.76,47.59359,-54.27349
2023-02-15 14:14:00+00:00,8.0,15.38,15.0,18.27,13.84,47.59359,-54.27349
2023-02-15 14:24:00+00:00,7.0,13.83,14.0,16.08,13.84,47.59359,-54.27349
2023-02-15 14:34:00+00:00,6.0,12.83,5.0,14.92,13.84,47.59359,-54.27349
2023-02-15 14:44:00+00:00,3.0,14.57,15.0,18.12,13.84,47.59359,-54.27349
2023-02-15 14:54:00+00:00,2.0,16.27,1.0,18.66,13.84,47.59359,-54.27349
2023-02-15 15:04:00+00:00,12.0,12.89,25.0,16.82,13.84,47.59359,-54.27349
2023-02-15 15:14:00+00:00,14.0,14.61,15.0,16.7,13.76,47.59359,-54.27349
2023-02-15 15:24:00+00:00,11.0,13.46,14.0,15.73,13.76,47.59359,-54.27349
2023-02-15 15:34:00+00:00,356.0,13.05,346.0,15.45,13.76,47.59359,-54.27349
2023-02-15 15:44:00+00:00,348.0,13.18,342.0,16.18,13.76,47.59359,-54.27349
2023-02-15 15:54:00+00:00,351.0,13.31,337.0,15.7,13.76,47.59359,-54.27349
2023-02-15 16:04:00+00:00,358.0,14.0,1.0,15.92,13.76,47.59359,-54.27349
2023-02-15 16:14:00+00:00,354.0,13.9,358.0,15.71,13.92,47.59359,-54.27349
2023-02-15 16:24:00+00:00,357.0,13.45,357.0,16.19,13.92,47.59359,-54.27349
2023-02-15 16:34:00+00:00,355.0,11.81,1.0,13.3,13.92,47.59359,-54.27349
2023-02-15 16:44:00+00:00,359.0,10.47,4.0,11.91,13.92,47.59359,-54.27349
2023-02-15 16:54:00+00:00,0.0,12.05,0.0,14.44,13.92,47.59359,-54.27349
2023-02-15 17:04:00+00:00,359.0,11.61,358.0,13.64,13.92,47.59359,-54.27349
2023-02-15 17:14:01+00:00,4.0,12.62,11.0,14.17,13.68,47.59359,-54.27349
2023-02-15 17:24:01+00:00,12.0,13.15,17.0,14.97,13.68,47.59359,-54.27349
2023-02-15 17:34:01+00:00,6.0,12.92,6.0,18.45,13.68,47.59359,-54.27349
2023-02-15 17:44:01+00:00,6.0,12.04,5.0,13.76,13.68,47.59359,-54.27349
2023-02-15 17:54:01+00:00,357.0,11.85,357.0,13.3,13.68,47.59359,-54.27349
2023-02-15 18:04:01+00:00,2.0,11.47,358.0,12.95,13.68,47.59359,-54.27349
2023-02-15 18:14:00+00:00,9.0,12.26,14.0,14.22,14.16,47.59359,-54.27349
2023-02-15 18:24:00+00:00,1.0,10.68,356.0,12.96,14.16,47.59359,-54.27349
2023-02-15 18:34:00+00:00,8.0,9.27,3.0,10.93,14.16,47.59359,-54.27349
2023-02-15 18:44:00+00:00,9.0,8.88,17.0,10.87,14.16,47.59359,-54.27349
2023-02-15 18:54:00+00:00,12.0,9.67,16.0,12.22,14.16,47.59359,-54.27349
2023-02-15 19:04:00+00:00,14.0,9.17,21.0,10.78,14.16,47.59359,-54.27349
2023-02-15 19:14:00+00:00,11.0,8.94,13.0,10.63,14.4,47.59359,-54.27349
2023-02-15 19:24:00+00:00,16.0,7.97,16.0,9.58,14.4,47.59359,-54.27349
2023-02-15 19:34:00+00:00,16.0,8.3,16.0,10.35,14.4,47.59359,-54.27349
2023-02-15 19:44:00+00:00,17.0,8.2,15.0,9.16,14.4,47.59359,-54.27349
2023-02-15 19:54:00+00:00,12.0,8.38,15.0,9.7,14.4,47.59359,-54.27349
2023-02-15 20:04:00+00:00,10.0,9.68,9.0,11.73,14.4,47.59359,-54.27349
2023-02-15 20:14:00+00:00,4.0,8.24,5.0,9.53,13.6,47.59359,-54.27349
2023-02-15 20:24:00+00:00,2.0,7.75,1.0,9.48,13.6,47.59359,-54.27349
2023-02-15 20:34:00+00:00,354.0,7.65,355.0,9.23,13.6,47.59359,-54.27349
2023-02-15 20:44:00+00:00,319.0,6.08,319.0,6.86,13.6,47.59359,-54.27349
2023-02-15 20:54:00+00:00,330.0,5.59,332.0,7.0,13.6,47.59359,-54.27349
2023-02-15 21:04:00+00:00,340.0,4.44,328.0,5.25,13.6,47.59359,-54.27349
2023-02-15 21:14:00+00:00,336.0,3.88,330.0,4.75,13.05,47.59359,-54.27349
2023-02-15 21:24:00+00:00,314.0,4.64,311.0,5.21,13.05,47.59359,-54.27349
2023-02-15 21:34:00+00:00,339.0,5.1,340.0,6.3,13.05,47.59359,-54.27349
2023-02-15 21:44:00+00:00,326.0,5.59,325.0,6.25,13.05,47.59359,-54.27349
2023-02-15 21:54:00+00:00,326.0,4.97,326.0,5.62,13.05,47.59359,-54.27349
2023-02-15 22:04:00+00:00,338.0,4.77,340.0,5.87,13.05,47.59359,-54.27349
2023-02-15 22:14:00+00:00,336.0,3.83,333.0,4.49,12.49,47.59359,-54.27349
2023-02-15 22:24:00+00:00,334.0,5.41,335.0,6.52,12.49,47.59359,-54.27349
2023-02-15 22:34:00+00:00,314.0,4.27,319.0,5.0,12.49,47.59359,-54.27349
2023-02-15 22:44:00+00:00,347.0,4.07,350.0,4.72,12.49,47.59359,-54.27349
2023-02-15 22:54:00+00:00,333.0,3.09,312.0,3.97,12.49,47.59359,-54.27349
2023-02-15 23:04:00+00:00,323.0,4.75,315.0,6.21,12.49,47.59359,-54.27349
2023-02-15 23:14:00+00:00,314.0,3.17,303.0,4.54,12.41,47.59359,-54.27349
2023-02-15 23:24:00+00:00,303.0,3.63,303.0,4.14,12.41,47.59359,-54.27349
2023-02-15 23:34:00+00:00,300.0,4.69,307.0,5.45,12.41,47.59359,-54.27349
2023-02-15 23:44:00+00:00,261.0,3.53,249.0,4.08,12.41,47.59359,-54.27349
2023-02-15 23:54:00+00:00,263.0,4.7,268.0,5.28,12.41,47.59359,-54.27349
